User: anonymous   Login
Location: Unspecified
(0.0000°N, 0.0000°E)
Time: 05:27:18
(UTC+00:00)
Language:

deb Explorer IX - Orbit

View from above orbital plane
View from above orbital plane
View from above satellite
View from above satellite

Ground track
Ground track

The orbit data is extracted from the following two-line orbital elements,

1    85U 61004C   19167.14662237  .00001716  00000-0  37196-3 0  9993
2    85  38.7757  93.1593 0401186 214.1791 143.2516 14.19782393878841
Epoch (UTC): 16 June 2019 03:31:08
Eccentricity: 0.0401186
inclination: 38.7757°
perigee height: 537 km
apogee height: 1115 km
right ascension of ascending node: 93.1593°
argument of perigee: 214.1791°
revolutions per day: 14.19782393
mean anomaly at epoch: 143.2516°
orbit number at epoch: 87884

The dashed part of the orbit path shows where the satellite is in the earth's shadow,  

DLR